Location: St Paul
(33.4390°N, 83.7350°W)
Time: 20:34:43
(UTC-04:00)

ATLAS 5 CENTAUR R/B - Pass Details

Date: 06 October 2017
Orbit: 620 x 1040 km, 63.4° (Epoch: 22 October)

Event Time Altitude Azimuth Distance (km) Brightness Sun altitude
Rises 19:27:09 0° 228° (SW) 2,892 5.9 -3.9°
Reaches altitude 10° 19:29:28 10° 237° (WSW) 2,009 5.3 -4.4°
Maximum altitude 19:33:42 39° 306° (NW) 992 3.2 -5.3°
Drops below altitude 10° 19:38:16 10° 15° (NNE) 2,172 4.2 -6.2°
Sets 19:40:53 0° 23° (NNE) 3,159 4.9 -6.8°
